Location: Unspecified
(40.7945°N, 0.0000°E)
Time: 06:49:08
(UTC+00:00)

Explorer 7 - Pass Details

Date: 26 January 2021
Orbit: 484 x 677 km, 50.3° (Epoch: 28 February)

Event Time Altitude Azimuth Distance (km) Brightness Sun altitude
Rises 09:38:24 0° 303° (WNW) 2,706 9.8 20.7°
Reaches altitude 10° 09:40:35 10° 302° (WNW) 1,842 9.0 20.9°
Maximum altitude 09:44:47 82° 215° (SW) 593 7.4 21.4°
Drops below altitude 10° 09:49:16 10° 129° (SE) 1,958 11.4 21.9°
Sets 09:51:38 0° 128° (SE) 2,892 11.8 22.2°
